Precipitable_Water
1.57 1.54 1.58 1.59 1.60 1.61 1.51 1.46 1.47 1.59 1.71 1.79 1.75 1.82 1.78 1.79 1.79 1.74 1.62 1.58 1.49 1.49 1.42 1.35 1.33 1.35 1.29 1.30 1.34 1.32 1.28 1.26 1.08 1.15 1.29 1.37 1.43 1.37 1.41 1.47 1.47 1.36 1.33
1.64 1.63 1.61 1.66 1.66 1.61 1.58 1.51 1.46 1.45 1.54 1.78 1.80 1.78 1.78 1.76 1.74 1.67 1.62 1.60 1.57 1.45 1.41 1.39 1.35 1.33 1.26 1.24 1.25 1.22 1.21 1.26 1.17 1.04 1.16 1.18 1.27 1.34 1.36 1.35 1.37 1.33 1.34
1.63 1.63 1.64 1.63 1.67 1.63 1.57 1.62 1.59 1.49 1.42 1.53 1.65 1.64 1.72 1.70 1.74 1.74 1.64 1.62 1.61 1.59 1.52 1.37 1.33 1.36 1.31 1.26 1.28 1.28 1.33 1.34 1.27 1.17 1.12 1.24 1.26 1.31 1.31 1.32 1.29 1.31 1.26
1.64 1.60 1.57 1.61 1.58 1.58 1.70 1.60 1.64 1.65 1.54 1.36 1.43 1.51 1.57 1.66 1.67 1.70 1.65 1.61 1.59 1.57 1.54 1.47 1.37 1.33 1.33 1.39 1.38 1.38 1.41 1.35 1.31 1.21 1.16 1.18 1.25 1.34 1.34 1.22 1.11 1.19 1.14
1.65 1.62 1.58 1.64 1.69 1.68 1.59 1.72 1.62 1.63 1.63 1.59 1.41 1.32 1.39 1.47 1.54 1.64 1.61 1.55 1.56 1.51 1.51 1.46 1.41 1.35 1.31 1.35 1.37 1.39 1.40 1.35 1.27 1.22 1.18 1.17 1.18 1.21 1.16 1.13 1.07 1.10 1.13
1.73 1.72 1.74 1.73 1.71 1.66 1.66 1.65 1.64 1.64 1.60 1.61 1.54 1.44 1.25 1.22 1.32 1.41 1.48 1.61 1.59 1.55 1.44 1.42 1.42 1.36 1.31 1.29 1.26 1.21 1.24 1.18 1.09 1.03 1.00 0.98 1.03 1.08 1.12 1.08 1.06 0.98 0.89
1.93 1.98 1.97 1.94 1.83 1.79 1.72 1.69 1.65 1.58 1.61 1.58 1.53 1.50 1.41 1.34 1.17 1.16 1.29 1.36 1.42 1.47 1.46 1.41 1.37 1.37 1.32 1.30 1.26 1.21 1.19 1.19 1.18 1.14 1.02 1.00 0.95 1.05 1.08 1.06 1.06 1.04 0.97
1.79 1.87 1.91 1.95 1.98 1.89 1.82 1.80 1.74 1.71 1.63 1.56 1.54 1.52 1.45 1.42 1.39 1.26 1.09 1.12 1.25 1.34 1.38 1.40 1.36 1.28 1.32 1.30 1.26 1.24 1.22 1.26 1.22 1.18 1.11 1.08 1.10 1.15 1.13 1.15 1.13 1.13 1.11
1.52 1.67 1.79 1.88 1.87 1.89 1.92 1.95 1.94 1.76 1.67 1.62 1.59 1.57 1.53 1.46 1.43 1.37 1.32 1.25 1.10 1.07 1.22 1.30 1.31 1.26 1.24 1.23 1.18 1.12 1.13 1.18 1.30 1.26 1.19 1.16 1.18 1.15 1.15 1.12 0.96 0.96 0.86
1.16 1.46 1.60 1.70 1.77 1.85 1.94 1.98 2.10 2.10 1.93 1.79 1.65 1.61 1.60 1.51 1.54 1.47 1.43 1.38 1.27 1.17 1.09 1.16 1.21 1.19 1.20 1.19 1.12 1.08 1.00 1.01 1.08 1.13 1.21 1.18 1.19 1.18 1.15 1.16 1.10 0.96 0.90
1.07 1.15 1.39 1.58 1.69 1.84 1.86 1.91 1.98 2.05 2.13 2.04 1.96 1.79 1.72 1.67 1.64 1.58 1.52 1.47 1.36 1.28 1.24 1.19 1.19 1.20 1.16 1.13 1.13 1.09 0.98 1.07 1.07 1.10 1.11 1.12 1.13 1.18 1.28 1.34 1.27 1.14 0.98
0.96 1.04 1.11 1.25 1.50 1.69 1.82 1.88 1.95 1.97 1.96 2.01 2.03 2.01 1.97 1.86 1.78 1.71 1.65 1.61 1.54 1.40 1.30 1.33 1.36 1.37 1.27 1.23 1.24 1.18 1.15 1.12 1.07 0.99 0.99 1.01 1.04 1.05 1.16 1.25 1.37 1.34 1.31
0.84 0.89 1.01 1.09 1.12 1.28 1.42 1.63 1.78 1.89 1.90 1.88 1.84 1.88 1.95 2.05 2.03 1.90 1.78 1.67 1.61 1.55 1.49 1.44 1.45 1.45 1.40 1.32 1.30 1.31 1.29 1.24 1.14 1.02 0.94 0.98 1.06 1.06 1.14 1.21 1.31 1.37 1.38
0.75 0.77 0.87 0.94 0.99 1.09 1.16 1.27 1.45 1.61 1.72 1.80 1.82 1.81 1.92 2.03 2.10 2.08 2.02 1.88 1.76 1.63 1.49 1.43 1.45 1.46 1.41 1.35 1.33 1.31 1.30 1.26 1.16 1.08 1.07 1.08 1.12 1.09 1.07 1.18 1.17 1.20 1.25
0.66 0.72 0.74 0.79 0.91 0.97 1.10 1.11 1.17 1.33 1.51 1.60 1.79 1.84 1.87 1.90 2.11 2.19 2.06 2.04 2.10 1.99 1.84 1.68 1.55 1.48 1.37 1.31 1.25 1.25 1.28 1.26 1.18 1.20 1.18 1.15 1.13 1.09 1.07 1.15 1.16 1.17 1.15
0.57 0.60 0.68 0.71 0.73 0.86 0.97 1.10 1.16 1.20 1.27 1.40 1.56 1.68 1.75 1.81 1.93 2.00 2.02 2.05 2.07 2.22 2.05 1.80 1.64 1.57 1.51 1.44 1.33 1.28 1.24 1.20 1.22 1.23 1.19 1.18 1.13 1.10 1.08 1.13 1.18 1.19 1.18
0.60 0.60 0.59 0.67 0.70 0.71 0.81 0.93 1.04 1.11 1.18 1.19 1.36 1.50 1.68 1.77 1.92 1.99 1.97 1.90 2.03 2.19 2.15 2.00 1.85 1.77 1.70 1.69 1.65 1.53 1.43 1.42 1.45 1.32 1.23 1.19 1.14 1.12 1.10 1.08 1.13 1.22 1.23
0.67 0.64 0.58 0.55 0.66 0.70 0.71 0.81 0.93 0.96 0.93 0.98 1.19 1.38 1.48 1.68 1.78 1.92 1.88 1.83 1.80 1.91 2.11 2.09 2.00 2.01 1.91 1.92 1.84 1.77 1.72 1.69 1.61 1.57 1.52 1.42 1.33 1.25 1.19 1.18 1.25 1.29 1.31
0.67 0.64 0.63 0.61 0.59 0.67 0.72 0.73 0.82 0.90 0.93 0.96 1.09 1.29 1.40 1.42 1.61 1.69 1.78 1.76 1.77 1.89 1.82 2.06 2.08 2.07 2.02 1.93 1.89 1.86 1.81 1.77 1.78 1.76 1.71 1.72 1.73 1.69 1.59 1.57 1.51 1.52 1.53
0.70 0.67 0.64 0.62 0.59 0.59 0.67 0.71 0.74 0.82 0.89 0.93 1.01 1.12 1.28 1.29 1.25 1.37 1.69 1.79 1.83 1.99 2.05 2.07 2.07 2.06 1.99 1.97 1.96 1.95 1.94 1.92 1.96 1.98 1.97 1.95 1.98 1.99 1.91 1.90 1.84 1.72 1.68
0.69 0.68 0.65 0.63 0.61 0.60 0.61 0.67 0.73 0.78 0.81 0.84 0.92 1.08 1.16 1.16 1.15 1.28 1.44 1.72 1.82 1.87 1.99 2.01 2.18 2.12 2.06 2.05 2.11 2.10 2.09 2.14 2.17 2.12 2.05 2.04 2.05 1.95 1.97 1.94 1.94 1.96 1.92
0.65 0.66 0.66 0.64 0.63 0.62 0.61 0.66 0.71 0.74 0.78 0.80 0.82 0.97 1.09 1.12 1.16 1.19 1.27 1.51 1.71 1.74 1.86 1.94 1.99 2.00 2.00 1.92 1.91 1.94 1.93 1.99 2.03 2.07 2.11 2.14 2.11 2.08 2.08 2.05 2.02 2.01 2.01
0.63 0.60 0.60 0.63 0.65 0.65 0.65 0.64 0.66 0.70 0.73 0.78 0.79 0.82 0.99 1.05 1.09 1.13 1.13 1.21 1.50 1.59 1.74 1.79 1.82 1.84 1.87 1.81 1.88 1.90 1.83 1.83 1.85 1.84 1.93 2.01 2.08 2.04 2.04 1.99 1.98 1.95 1.93
0.60 0.59 0.59 0.60 0.62 0.64 0.66 0.63 0.64 0.66 0.69 0.75 0.78 0.81 0.85 0.98 1.07 1.08 1.14 1.21 1.26 1.49 1.56 1.65 1.73 1.75 1.69 1.66 1.73 1.79 1.82 1.81 1.80 1.88 1.99 2.01 2.06 2.05 1.96 1.96 1.96 1.99 1.96
0.60 0.61 0.62 0.61 0.62 0.62 0.64 0.64 0.63 0.65 0.67 0.71 0.76 0.81 0.86 0.92 1.04 1.06 1.09 1.14 1.20 1.30 1.42 1.49 1.54 1.61 1.58 1.54 1.52 1.55 1.58 1.72 1.84 1.88 1.94 1.94 1.93 1.89 1.86 1.80 1.79 1.81 1.83
0.61 0.62 0.64 0.64 0.64 0.64 0.63 0.62 0.63 0.66 0.67 0.68 0.73 0.78 0.86 0.87 0.91 1.03 1.09 1.14 1.15 1.24 1.26 1.27 1.34 1.37 1.41 1.41 1.41 1.42 1.44 1.51 1.59 1.65 1.64 1.60 1.54 1.54 1.55 1.53 1.53 1.53 1.55
Wind_Speed
24 24 24 23 22 21 20 20 20 19 17 16 15 13 11 10 10 9 8 8 8 9 9 10 11 11 11 11 11 11 11 11 11 11 11 10 10 11 11 12 12 13 13
26 25 25 25 24 24 23 22 21 21 20 19 17 15 14 13 12 11 11 10 9 9 10 10 11 12 12 13 12 12 12 12 13 13 13 13 13 13 13 13 13 14 14
26 27 27 27 26 25 25 24 23 23 23 22 20 19 17 16 15 14 14 12 12 11 10 11 11 12 13 13 13 12 12 13 13 14 14 14 14 14 14 14 15 15 15
25 26 27 28 28 28 27 28 27 26 25 25 24 22 20 19 18 17 17 16 14 13 13 12 12 13 13 14 14 14 14 14 14 15 15 15 15 15 15 16 16 16 17
24 26 27 27 27 28 29 28 30 30 28 27 26 26 25 23 21 20 19 18 17 16 15 15 14 14 14 14 14 15 15 16 16 16 16 16 16 16 16 18 18 18 19
25 26 26 27 28 29 29 29 30 31 31 30 29 28 28 27 26 25 23 21 21 20 19 18 17 16 16 16 16 17 17 17 17 18 18 19 19 19 19 19 20 20 20
23 25 27 29 29 30 31 31 31 31 33 33 33 32 31 30 30 29 28 27 25 23 23 22 21 20 20 19 19 19 19 20 20 19 20 20 21 20 20 21 21 21 21
22 24 24 25 26 28 30 31 32 33 33 34 34 34 34 33 32 32 32 31 30 29 27 26 25 24 23 22 21 21 21 20 20 21 22 22 21 21 20 21 21 22 21
23 24 25 26 27 28 29 31 32 32 33 34 34 35 35 35 34 34 34 34 34 33 32 31 29 28 27 26 25 24 24 23 23 23 24 24 24 23 23 22 22 21 21
23 25 27 27 28 31 29 31 31 33 34 33 34 35 35 35 35 36 36 35 35 34 34 34 33 33 31 30 29 28 27 27 26 24 24 24 25 25 25 24 23 22 22
27 26 27 28 29 30 30 31 31 32 34 35 35 34 35 36 36 36 37 37 36 35 35 34 34 34 35 34 33 32 31 29 28 27 27 26 26 25 24 23 23 23 23
31 31 29 29 30 31 33 32 34 34 34 36 35 35 34 35 37 37 37 38 38 38 37 35 35 34 35 35 35 35 34 33 31 31 29 28 27 26 25 25 25 24 24
36 35 34 33 31 32 31 32 33 33 34 35 37 36 36 35 34 35 37 38 39 40 38 37 36 35 34 35 35 35 34 33 32 32 31 30 29 28 27 27 26 26 27
42 40 39 37 36 34 33 33 32 33 33 34 36 38 37 37 35 34 34 35 38 39 39 39 38 37 35 34 34 34 35 34 33 33 32 31 30 29 28 28 27 27 26
47 45 43 42 41 39 37 36 35 34 34 34 35 36 38 37 35 33 34 34 34 36 38 38 38 37 36 35 35 35 34 34 35 34 33 32 31 31 30 29 29 28 28
49 49 48 46 45 43 42 39 39 38 36 36 38 39 40 42 42 41 40 39 37 37 35 37 38 37 36 34 34 33 33 33 33 32 32 32 32 32 31 31 30 30 29
47 49 52 51 49 47 46 44 41 41 40 38 37 38 39 41 41 40 38 39 39 37 37 37 36 36 36 35 34 34 34 34 33 33 33 32 32 32 31 31 31 30 30
47 48 51 54 54 52 49 48 46 45 43 41 39 38 37 39 41 41 40 39 40 39 37 37 36 36 36 35 36 35 34 33 32 32 31 30 30 30 30 30 30 30 30
46 48 49 52 55 55 53 51 49 48 46 44 42 39 38 38 41 41 40 40 39 39 40 36 36 36 34 34 34 34 34 34 33 32 32 31 31 30 30 30 30 30 30
42 46 49 51 53 56 56 54 52 50 48 46 44 42 40 37 36 37 38 40 39 39 39 38 37 37 35 35 34 34 34 34 33 33 32 32 32 32 32 32 31 31 31
38 40 43 48 51 54 56 56 54 52 50 48 47 44 42 41 39 38 37 36 39 39 40 38 35 36 36 35 35 35 35 34 33 33 34 34 34 35 35 35 34 34 33
36 37 38 42 47 51 54 56 57 55 52 50 47 46 44 42 39 38 37 37 36 37 39 39 38 36 35 35 35 36 36 35 34 34 35 35 35 35 35 35 35 35 34
33 36 39 42 45 48 53 55 57 57 55 53 49 46 45 44 41 38 38 36 37 37 36 35 36 37 37 36 36 36 36 37 37 36 36 35 34 33 33 34 35 35 35
31 34 37 39 43 47 50 53 55 56 55 53 51 49 46 45 43 40 38 38 36 36 36 37 37 35 35 35 36 37 39 41 39 38 36 34 33 32 32 33 34 35 35
27 29 31 33 36 40 45 48 51 53 53 52 51 48 47 45 45 42 40 38 36 35 34 34 33 33 32 31 32 32 31 30 33 35 33 33 33 33 33 33 34 34 35
22 24 26 27 29 32 36 41 45 48 49 49 48 48 45 44 44 42 40 38 36 35 34 32 31 30 30 30 30 30 29 29 29 29 29 30 31 32 32 32 32 33 34
Wind_Direction
220 219 220 221 221 222 222 223 223 223 222 221 221 220 220 220 220 219 219 216 218 221 222 222 223 225 227 229 231 233 235 238 244 248 255 263 268 274 285 295 304 311 318
223 223 223 223 224 224 225 225 226 226 225 224 225 227 226 228 227 225 224 223 224 227 229 229 230 231 233 235 238 240 244 246 250 255 259 264 266 274 281 290 298 305 311
226 226 226 227 227 228 228 229 228 229 229 228 229 230 231 233 232 231 230 231 232 234 235 235 236 236 237 238 238 242 245 249 252 256 262 266 269 274 280 286 293 300 306
227 227 228 230 231 232 233 232 232 232 232 232 233 233 234 235 236 237 235 235 236 238 239 240 241 240 241 241 243 246 250 254 256 259 263 267 270 274 278 284 291 296 302
230 231 231 232 233 233 233 235 234 235 235 236 236 237 237 238 238 238 237 237 240 242 243 242 244 244 244 244 246 249 253 256 259 262 266 269 271 275 280 285 288 293 298
234 234 234 235 236 236 236 237 237 236 236 237 238 239 239 239 239 239 240 241 243 244 245 245 247 248 249 250 251 254 256 258 261 265 268 270 273 275 278 282 287 291 294
239 237 239 240 239 239 238 239 239 239 238 238 239 241 241 241 241 241 242 243 245 246 247 249 250 251 252 255 256 257 259 260 262 265 269 271 275 276 278 281 283 287 289
243 244 244 241 242 240 240 240 240 240 240 241 241 242 243 243 243 243 243 245 246 248 249 250 251 252 253 255 257 259 261 263 264 265 267 271 274 276 277 279 282 285 287
247 247 247 245 245 244 244 243 242 241 241 242 242 243 243 244 243 243 244 246 247 248 249 250 251 252 253 254 256 259 262 265 267 267 268 271 273 274 275 279 282 283 285
254 251 249 249 251 245 248 247 245 244 242 242 243 243 244 244 244 244 244 246 247 248 249 250 251 252 253 253 254 257 261 263 267 269 270 271 272 273 272 273 277 280 283
255 255 253 251 250 247 246 250 248 248 245 244 244 245 245 245 245 244 244 245 247 248 249 250 252 251 252 253 254 255 258 262 265 267 269 270 270 271 272 272 274 276 280
255 255 255 254 252 251 250 252 250 250 250 245 245 246 246 246 245 245 245 246 246 247 248 250 252 252 253 253 253 255 257 260 262 264 266 267 268 269 271 272 272 274 277
254 254 254 254 254 253 254 252 251 251 250 247 245 246 247 248 247 247 246 246 246 247 248 249 251 252 254 254 254 255 255 256 258 260 262 264 266 269 270 271 272 274 276
253 253 252 253 253 253 253 252 251 251 249 250 247 246 247 247 247 246 247 247 247 246 247 248 248 250 253 255 255 254 253 253 255 258 260 263 265 267 268 269 271 273 274
252 251 251 251 251 251 252 251 250 251 251 252 250 249 247 245 245 247 247 249 249 248 246 247 248 248 250 252 253 253 254 253 254 256 258 260 262 264 266 267 269 271 272
252 250 249 250 250 250 250 252 249 249 252 254 252 251 249 247 248 250 251 250 252 250 248 247 247 247 248 250 251 252 252 253 254 255 256 258 260 262 264 265 267 268 270
253 251 249 248 248 249 249 249 250 250 251 253 254 253 250 248 247 248 251 252 251 250 248 248 247 246 247 248 248 250 252 253 254 255 256 257 259 260 261 263 265 266 268
254 253 251 248 247 247 247 248 248 249 250 252 254 253 251 250 247 251 246 253 249 246 248 248 247 246 248 248 248 250 252 253 253 254 255 256 257 259 260 261 263 265 267
255 255 253 249 246 245 246 247 247 247 248 249 251 251 251 250 250 252 248 250 248 246 245 246 245 247 248 248 248 248 249 250 251 253 254 255 256 257 259 261 263 265 268
258 258 253 249 246 244 244 244 245 245 246 246 247 248 249 252 253 250 250 247 247 243 243 245 244 246 248 248 248 248 249 250 250 252 254 254 256 257 259 262 264 266 267
259 260 257 250 247 245 243 242 242 243 243 244 245 247 248 251 251 249 251 250 246 246 243 244 247 248 247 248 248 248 249 250 252 253 255 257 258 259 260 261 263 264 267
259 260 260 255 251 246 243 241 240 241 241 242 244 245 245 246 246 247 250 248 247 246 245 245 247 248 249 249 250 250 251 252 254 257 258 258 258 260 261 262 262 262 264
262 263 265 261 255 249 243 240 239 239 240 240 242 243 242 242 245 246 246 247 245 247 246 246 245 246 248 251 252 253 254 254 255 257 259 259 259 259 262 263 263 263 264
269 269 271 266 257 249 243 239 238 238 238 238 239 240 240 240 241 243 245 245 246 246 246 245 245 250 251 252 253 255 258 259 259 254 258 259 259 260 263 265 267 266 267
278 276 273 267 259 249 243 239 237 236 235 235 236 236 237 238 239 240 241 243 243 243 244 243 246 245 249 252 254 257 263 259 251 254 257 260 261 263 266 269 268 269 269
288 283 276 272 261 251 243 239 236 233 233 233 233 233 234 236 237 236 238 239 238 238 239 241 244 246 249 253 256 258 258 258 257 257 259 262 264 266 268 270 271 271 272